Location: Champrosay
(48.6613°N, 2.4277°E)
Time: 01:45:27
(UTC+00:00)

Daily predictions for brighter satellites

Satellite Brightness Start Highest point End
(mag) Time Altitude Azimuth Time Altitude Azimuth Time Altitude Azimuth
Cosmos 1943 Rocket 3.9 03:30:59 27° NE 03:30:59 27° NE 03:33:46 10° NE
USA 238 DEB 4.4 03:34:56 48° E 03:34:56 48° E 03:40:35 10° NE
USA 238 4.4 03:35:00 48° E 03:35:00 48° E 03:40:41 10° NE
USA 215 3.8 03:38:16 10° E 03:44:01 52° NE 03:44:01 52° NE
BREEZE-M DEB (TANK) 4.2 03:59:21 39° SE 03:59:21 39° SE 04:05:53 10° ESE
Cosmos 2278 Rocket 4.3 04:05:51 15° N 04:05:51 15° N 04:06:58 10° NNE
COSMO-SKYMED 1 3.7 04:20:19 10° SE 04:24:23 40° ENE 04:24:46 39° NE
Meteor 2-3 Rocket 3.8 04:27:08 69° N 04:27:08 69° N 04:32:10 10° NNE
CENTAUR R/B 2.4 04:30:49 70° NW 04:30:54 70° NW 04:38:12 10° NE
Cosmos 1634 Rocket 3.9 04:30:39 20° N 04:35:10 87° E 04:41:25 10° S
Cosmos 1486 Rocket 4.3 04:36:21 15° S 04:40:43 65° ESE 04:45:57 10° NNE
Meteor 1-26 Rocket 4.3 04:43:21 60° SW 04:43:21 60° SW 04:48:21 10° S
Cosmos 2344 3.6 04:44:25 50° WNW 04:45:47 57° NW 04:53:48 10° NE
NOSS 3-2 (A) 3.7 04:48:00 49° NW 04:48:00 49° NW 04:54:33 10° NE
Tsikada Rocket 3.9 04:46:12 39° SW 04:48:28 64° WNW 04:54:45 10° N
Cosmos 2369 Rocket 2.1 04:47:36 29° SSW 04:50:32 85° ESE 04:56:11 10° NNE
Meteor 1-31 Rocket 3.7 04:50:29 10° NNE 04:54:17 47° E 04:58:04 10° S
NOSS 3-2 (C) 3.3 04:55:42 54° W 04:56:47 65° NW 05:03:25 10° NE
SJ 16-02 4.0 04:54:52 10° SE 04:58:03 20° E 05:01:16 10° NE
H-2A R/B 3.3 04:54:40 10° NNE 05:00:49 21° S 05:02:09 10° S
SL-27 R/B 4.0 04:58:53 29° NNE 04:59:50 35° ENE 05:03:08 10° SE
Envisat 3.1 04:55:37 10° NNE 05:00:44 77° ESE 05:05:49 10° S
Kosmos-917 4.2 05:02:07 54° N 05:02:07 54° N 05:06:32 10° NE
Landsat 5 3.7 04:57:39 10° SSE 05:02:09 75° ENE 05:04:30 28° N
Cosmos 1656 Rocket 3.7 04:56:53 10° SSW 05:02:16 77° ESE 05:07:45 10° NNE
Cosmos 968 Rocket 3.6 05:06:20 51° NW 05:06:20 51° NW 05:11:08 10° NNE
Cosmos 2098 Rocket 3.0 05:06:16 10° SSW 05:10:20 76° W 05:15:36 10° N
Cosmos 1862 3.1 05:07:53 10° S 05:11:49 87° W 05:15:48 10° N
Cosmos 1943 Rocket 2.8 05:12:33 36° NW 05:12:33 36° NW 05:17:30 10° NNE
SKYMED 2 3.4 05:08:04 10° S 05:12:23 69° WSW 05:13:22 50° NW
CZ-2C R/B 2.5 05:07:06 10° S 05:12:35 72° WSW 05:16:42 18° NNW
SL-8 R/B 4.0 05:15:27 44° WSW 05:16:26 52° SSW 05:21:04 10° SE
FALCON 9 DEB 4.4 05:17:23 25° NE 05:17:23 25° NE 05:19:06 10° ENE
FALCON 9 DEB 4.4 05:18:11 26° NE 05:18:11 26° NE 05:19:56 10° ENE
Cosmos 2227 Rocket 4.3 05:15:56 10° N 05:19:56 19° NE 05:23:54 10° E
Meteor 2-13 Rocket 4.5 05:14:51 10° SSW 05:20:48 54° WNW 05:26:47 10° N
FALCON 9 DEB 3.5 05:25:10 46° N 05:25:10 46° N 05:28:21 10° ENE
USA 238 DEB 3.9 05:22:25 32° W 05:25:04 47° NW 05:31:48 10° NE
USA 238 3.9 05:22:29 32° W 05:25:10 48° NW 05:31:54 10° NE
SJ-12 3.9 05:22:24 10° N 05:26:28 56° WNW 05:30:31 10° SSW
USA 215 3.2 05:20:56 10° SE 05:27:28 75° SW 05:31:22 26° WNW
CBERS 1 LM4 rocket 4.3 05:22:54 10° NNE 05:27:46 78° WNW 05:32:47 10° SSW
H-2A R/B 3.1 05:24:20 10° SE 05:28:24 45° ENE 05:32:36 10° N
Cosmos 1151 Rocket 3.4 05:28:45 40° W 05:28:51 40° W 05:32:56 10° SSW
MOS 1-B Rocket 4.4 05:28:37 10° SSW 05:34:19 38° W 05:37:28 22° NW
Cosmos 1354 Rocket 4.0 05:29:32 10° SSW 05:34:49 89° SE 05:40:11 10° NNE
Okean 3 Rocket 3.6 05:30:41 10° SSW 05:35:09 58° WNW 05:39:40 10° N
DNEPR-1 R/B 4.5 05:34:59 32° W 05:36:29 40° WSW 05:41:46 10° S
CZ-4B R/B 3.6 05:35:21 10° NNE 05:38:50 47° E 05:42:17 10° S
FALCON 9 DEB 3.7 05:38:55 33° N 05:38:55 33° N 05:41:35 10° ENE
NOAA 11 4.3 05:33:32 10° NNE 05:39:02 77° ESE 05:44:32 10° S
CZ-4B R/B 3.6 05:37:07 10° SE 05:39:51 25° ENE 05:42:35 10° NNE
ADEOS 3.6 05:36:11 10° NNE 05:41:27 88° ESE 05:46:41 10° SSW
Cosmos 1766 Rocket 3.8 05:37:22 10° SSW 05:41:30 43° WNW 05:45:39 10° N
NOSS 2 (A) 4.4 05:44:15 41° NNW 05:44:59 65° NE 05:47:29 10° SE
Lacrosse 4 Rocket 4.0 05:43:17 10° N 05:45:44 14° NNE 05:48:12 10° ENE
Meteor 1-27 Rocket 3.7 05:41:34 10° NNW 05:47:14 86° W 05:52:59 10° S
Cosmos 2278 Rocket 4.2 05:47:42 10° NNW 05:47:52 10° NNW 05:48:53 10° NNW
Cosmos 1328 Rocket 4.1 05:45:56 24° NW 05:47:53 36° W 05:51:50 10° SSW
CZ-2C R/B 3.0 05:52:05 10° NNE 05:56:59 85° ESE 06:02:04 10° SSW
ATLAS 5 CENTAUR R/B 2.0 05:55:59 10° SSW 05:59:44 56° SE 06:03:59 10° NE
COSMO-SKYMED 1 3.7 05:57:12 10° SSW 06:00:42 23° W 06:01:58 21° WNW
Cosmos 1538 Rocket 4.1 05:56:09 10° NNW 06:01:26 80° ENE 06:06:38 10° SSE
Cosmos 1340 Rocket 2.9 05:57:58 10° S 06:01:55 82° E 06:05:57 10° NNE
CZ-4C R/B 3.8 06:00:55 10° SSW 06:03:35 25° W 06:04:08 24° WNW
Cosmos 1607 4.2 05:59:11 12° NW 06:05:07 69° NE 06:11:15 10° SE
Meteor PRIRODA 3.5 06:01:33 10° N 06:05:10 71° WNW 06:08:47 10° SSW
Meteor 2-15 Rocket 4.5 06:02:07 10° NNW 06:08:04 57° W 06:13:58 10° S
COSMOS 2487 2.3 06:06:46 11° NNW 06:09:57 89° ENE 06:13:18 10° SSE
Cosmos 1515 3.6 06:06:50 10° N 06:10:39 86° W 06:14:27 10° S
H-2A R/B 3.7 06:06:47 10° NNE 06:11:18 35° E 06:15:48 10° SSE
Nadezhda 4 Rocket 4.0 06:08:14 10° SSW 06:14:20 64° WNW 06:20:34 10° N
Cosmos 1408 Rocket 3.9 06:10:51 10° SW 06:14:55 40° WNW 06:19:00 10° N
Cosmos 1503 Rocket 4.5 06:10:48 10° SW 06:15:45 39° WNW 06:20:47 10° NNE
Cosmos 1939 Rocket 2.7 06:11:52 10° NNE 06:15:49 88° WNW 06:19:42 10° SSW
Meteor 1-25 Rocket 4.4 06:12:48 10° S 06:18:24 77° E 06:23:59 10° NNE
Cosmos 2228 Rocket 3.1 06:14:47 10° N 06:19:18 82° W 06:23:49 10° S
USA 32 4.0 06:16:04 10° N 06:21:18 71° W 06:26:31 10° S
CENTAUR R/B 3.7 06:18:01 13° WNW 06:22:57 30° NNW 06:29:39 10° NE
Cosmos 1743 Rocket 3.5 06:19:30 10° SSW 06:23:50 60° WNW 06:28:10 10° N
Cosmos 1777 Rocket 4.0 06:19:12 10° SW 06:24:23 64° WNW 06:29:37 10° NNE
Meteor 1-31 Rocket 4.2 06:25:39 10° NNW 06:28:20 18° WNW 06:31:00 10° WSW
EP 2 4.5 06:25:22 10° SW 06:28:24 71° NW 06:31:26 10° NE
Cosmos 2297 Rocket 2.7 06:23:39 10° NNW 06:29:16 60° ENE 06:34:52 10° SE
Cosmos 1092 Rocket 4.0 06:24:33 10° SSW 06:30:50 79° W 06:37:12 10° N
Cosmos 1666 4.3 06:28:43 10° SSE 06:32:14 39° E 06:35:47 10° NNE
Cosmos 1428 Rocket 4.5 06:26:32 10° S 06:32:40 86° W 06:38:49 10° N
SL-27 R/B 4.0 06:32:22 12° WNW 06:34:36 19° W 06:37:09 10° SW
Okean 1 3.2 06:30:48 10° N 06:34:46 83° W 06:38:43 10° S
Cosmos 2369 Rocket 3.3 06:30:59 10° W 06:35:18 22° NW 06:39:39 10° N
SMAP 3.0 06:31:03 10° N 06:35:44 74° WNW 06:40:21 10° SSW
NOAA 6 4.0 06:31:06 10° NNE 06:36:15 84° WNW 06:41:22 10° SSW
SJ 16-02 1.5 06:32:03 10° SW 06:36:18 48° WNW 06:40:34 10° NNE
Cosmos 923 Rocket 4.3 06:31:23 10° NNW 06:36:45 73° ENE 06:42:06 10° SSE
OPS 6432 4.2 06:34:48 10° NW 06:37:45 84° NE 06:41:09 10° SE
Envisat 4.3 06:35:46 10° NNW 06:39:11 18° WNW 06:42:34 10° W
Meteor 1-18 Rocket 4.4 06:35:50 10° NNW 06:41:45 88° E 06:47:30 10° S
CZ-2D R/B 3.2 06:40:29 10° NNE 06:44:18 89° WNW 06:48:05 10° SSW
AQUARIUS 4.1 06:39:50 10° N 06:44:19 69° WNW 06:48:47 10° SSW
Cosmos 1689 Rocket 4.1 06:43:56 10° SE 06:46:05 23° ENE 06:48:16 10° NNE
FengYun 1-2 T 4.3 06:41:51 10° N 06:47:14 59° WNW 06:52:37 10° SSW
FALCON 9 DEB 3.5 06:45:14 10° WNW 06:47:59 38° NNE 06:50:44 10° E
ATLAS 3B R/B 2.7 06:44:23 10° SW 06:50:58 80° NW 06:57:55 10° NE
FALCON 9 DEB 3.3 06:49:06 10° WNW 06:51:52 45° NNE 06:54:37 10° E
Cosmos 1500 Rocket 4.3 06:48:08 10° SW 06:52:08 31° WNW 06:56:08 10° N
Cosmos 2263 Rocket 4.1 06:48:31 10° N 06:52:38 20° NE 06:56:45 10° E
FALCON 9 DEB 3.2 06:49:52 10° WNW 06:52:40 48° NNE 06:55:27 10° E
CZ-2C R/B 4.4 06:52:18 10° W 06:53:47 11° W 06:55:16 10° WNW
Meteor 2-4 Rocket 4.0 06:51:53 10° NNW 06:57:52 87° E 07:03:43 10° S
